Overview Statistics Trail Chart Weather Telemetry Raw packets
 

This is the latest recevied weather packets stored in our database for station/object K7NDG. If no packets are shown the sender has not sent any weather packets the latest 10 day(s).

<< 12 13 14 15 16 17 18 >>
Time Temp. Humidity Pressure Rain* Wind** Luminosity Snow
1788479103 17.78° C 70% 1008.7 hPa 0 mm - 163 W/m² -
1788478799 17.78° C 71% 1008.7 hPa 0 mm - 176 W/m² -
1788478495 17.22° C 70% 1008.6 hPa 0 mm - 204 W/m² -
1788478189 17.22° C 70% 1008.9 hPa 0 mm - 179 W/m² -
1788477885 17.78° C 70% 1008.8 hPa 0 mm - 160 W/m² -
1788477584 17.78° C 70% 1008.8 hPa 0 mm - 196 W/m² -
1788477280 17.78° C 70% 1008.9 hPa 0 mm - 209 W/m² -
1788476974 17.78° C 70% 1008.8 hPa 0 mm - 187 W/m² -
1788476670 18.33° C 69% 1008.8 hPa 0 mm - 177 W/m² -
1788476366 18.33° C 69% 1008.9 hPa 0 mm - 186 W/m² -
1788476061 18.89° C 66% 1008.8 hPa 0 mm - 247 W/m² -
1788475758 18.89° C 66% 1008.9 hPa 0 mm - 262 W/m² -
1788475454 18.89° C 68% 1008.8 hPa 0 mm - 374 W/m² -
1788475150 18.33° C 69% 1008.7 hPa 0 mm - 327 W/m² -
1788474848 18.33° C 67% 1008.7 hPa 0 mm - 264 W/m² -
1788474548 18.33° C 71% 1008.6 hPa 0 mm - 268 W/m² -
1788474243 18.89° C 72% 1008.5 hPa 0 mm - 231 W/m² -
1788473937 18.89° C 72% 1008.9 hPa 0 mm - 247 W/m² -
1788473636 18.33° C 75% 1008.5 hPa 0 mm - 299 W/m² -
1788473335 18.33° C 73% 1008.6 hPa 0 mm - 453 W/m² -
1788473029 17.78° C 74% 1008.8 hPa 0 mm - 267 W/m² -
1788472727 17.78° C 75% 1008.7 hPa 0 mm - 219 W/m² -
1788472424 17.78° C 76% 1009 hPa 0 mm - 184 W/m² -
1788472121 17.22° C 76% 1008.8 hPa 0 mm - 192 W/m² -
1788471818 17.22° C 76% 1008.9 hPa 0 mm - 220 W/m² -

* Rain latest hour (hover to see other rain measurements)
** Current wind speed in m/s (hover to see current wind gust speed)